| time (UTC) | temp F | wind direction | speed MPH | gust MPH | rain 1hr in | rain 24hr in | rain mn in | humidity % | barometer mb |
| 20260905012546 | 55 | 0 | 0.0 | 0.0 | 0.00 | 0.11 | 0.00 | 96 | 1017.6 |
| 20260905012045 | 55 | 0 | 0.0 | 0.0 | 0.00 | 0.11 | 0.00 | 96 | 1017.6 |
| 20260905011601 | 55 | 0 | 0.0 | 0.0 | 0.00 | 0.11 | 0.00 | 96 | 1017.6 |
| 20260905011046 | 55 | 0 | 0.0 | 0.0 | 0.00 | 0.11 | 0.00 | 96 | 1017.6 |
| 20260905010547 | 55 | 0 | 0.0 | 0.0 | 0.00 | 0.11 | 0.00 | 96 | 1017.6 |
| 20260905010100 | 55 | 0 | 0.0 | 0.0 | 0.00 | 0.11 | 0.00 | 96 | 1017.6 |
| 20260905005546 | 55 | 0 | 0.0 | 0.0 | 0.00 | 0.11 | 0.00 | 96 | 1017.5 |
| 20260905005048 | 55 | 0 | 0.0 | 0.0 | 0.00 | 0.11 | 0.00 | 96 | 1017.6 |
| 20260905004711 | 55 | 0 | 0.0 | 0.0 | 0.00 | 0.11 | 0.00 | 96 | 1017.6 |
| 20260905004046 | 55 | 0 | 0.0 | 0.0 | 0.00 | 0.11 | 0.00 | 96 | 1017.6 |
| 20260905003546 | 56 | 0 | 0.0 | 0.0 | 0.00 | 0.11 | 0.00 | 96 | 1017.7 |
| 20260905003101 | 56 | 0 | 0.0 | 0.0 | 0.00 | 0.11 | 0.00 | 96 | 1017.7 |
| 20260905002545 | 56 | 0 | 0.0 | 0.0 | 0.00 | 0.11 | 0.00 | 96 | 1017.6 |
| 20260905002050 | 56 | 0 | 0.0 | 0.0 | 0.00 | 0.11 | 0.00 | 96 | 1017.6 |
| 20260905001609 | 56 | 0 | 0.0 | 0.0 | 0.00 | 0.11 | 0.00 | 96 | 1017.8 |
| 20260905001046 | 56 | 0 | 0.0 | 0.0 | 0.00 | 0.11 | 0.00 | 96 | 1017.6 |
| 20260905000546 | 56 | 0 | 0.0 | 0.0 | 0.00 | 0.11 | 0.00 | 96 | 1017.6 |
| 20260905000107 | 56 | 0 | 0.0 | 0.0 | 0.00 | 0.11 | 0.00 | 96 | 1017.6 |
| 20260904235546 | 56 | 0 | 0.0 | 0.0 | 0.00 | 0.11 | 0.00 | 96 | 1017.7 |
| 20260904235047 | 56 | 0 | 0.0 | 0.0 | 0.00 | 0.11 | 0.00 | 96 | 1017.5 |
| 20260904234604 | 56 | 0 | 0.0 | 0.0 | 0.00 | 0.11 | 0.00 | 96 | 1017.5 |
| 20260904234046 | 57 | 0 | 0.0 | 0.0 | 0.00 | 0.11 | 0.00 | 96 | 1017.6 |
| 20260904233546 | 57 | 0 | 0.0 | 0.0 | 0.00 | 0.11 | 0.00 | 95 | 1017.5 |
| 20260904233105 | 57 | 0 | 0.0 | 0.0 | 0.00 | 0.11 | 0.00 | 96 | 1017.4 |
| 20260904232546 | 57 | 0 | 0.0 | 0.0 | 0.00 | 0.11 | 0.00 | 95 | 1017.4 |
| 20260904232048 | 57 | 0 | 0.0 | 0.0 | 0.00 | 0.11 | 0.00 | 95 | 1017.4 |
| 20260904231606 | 57 | 0 | 0.0 | 0.0 | 0.00 | 0.11 | 0.00 | 95 | 1017.3 |
| 20260904231046 | 58 | 0 | 0.0 | 0.0 | 0.00 | 0.11 | 0.00 | 95 | 1017.3 |
| 20260904230546 | 58 | 0 | 0.0 | 0.0 | 0.00 | 0.11 | 0.00 | 95 | 1017.3 |
| 20260904230110 | 58 | 0 | 0.0 | 0.0 | 0.00 | 0.11 | 0.00 | 95 | 1017.3 |
| 20260904225547 | 58 | 0 | 0.0 | 0.0 | 0.00 | 0.11 | 0.00 | 95 | 1017.2 |
| 20260904225050 | 58 | 0 | 0.0 | 0.0 | 0.00 | 0.11 | 0.00 | 95 | 1017.2 |
| 20260904224605 | 59 | 0 | 0.0 | 0.0 | 0.00 | 0.11 | 0.00 | 95 | 1017.2 |
| 20260904224046 | 59 | 0 | 0.0 | 0.0 | 0.00 | 0.11 | 0.00 | 95 | 1017.2 |
| 20260904223545 | 59 | 0 | 0.0 | 0.0 | 0.00 | 0.11 | 0.00 | 95 | 1017.1 |
| 20260904223109 | 59 | 0 | 0.0 | 0.0 | 0.00 | 0.11 | 0.00 | 95 | 1017.1 |
| 20260904222546 | 59 | 0 | 0.0 | 0.0 | 0.00 | 0.11 | 0.00 | 95 | 1017.0 |
| 20260904222045 | 59 | 0 | 0.0 | 0.0 | 0.00 | 0.11 | 0.00 | 95 | 1017.0 |
| 20260904221606 | 59 | 0 | 0.0 | 1.0 | 0.00 | 0.11 | 0.00 | 95 | 1016.9 |
| 20260904221046 | 59 | 0 | 0.0 | 1.0 | 0.00 | 0.11 | 0.00 | 95 | 1016.8 |
| 20260904220547 | 59 | 0 | 0.0 | 1.0 | 0.00 | 0.11 | 0.00 | 95 | 1016.8 |
| 20260904220107 | 60 | 0 | 0.0 | 1.0 | 0.00 | 0.11 | 0.00 | 95 | 1016.8 |
| 20260904215546 | 60 | 0 | 0.0 | 1.0 | 0.00 | 0.11 | 0.11 | 95 | 1016.7 |
| 20260904215046 | 60 | 0 | 0.0 | 0.0 | 0.00 | 0.11 | 0.11 | 95 | 1016.6 |
| 20260904214613 | 60 | 0 | 0.0 | 0.0 | 0.00 | 0.11 | 0.11 | 95 | 1016.7 |
| 20260904214046 | 60 | 0 | 0.0 | 0.0 | 0.00 | 0.11 | 0.11 | 95 | 1016.5 |
| 20260904213546 | 60 | 0 | 0.0 | 0.0 | 0.00 | 0.11 | 0.11 | 95 | 1016.4 |
| 20260904213108 | 60 | 0 | 0.0 | 4.0 | 0.00 | 0.11 | 0.11 | 95 | 1016.5 |
| 20260904212546 | 60 | 0 | 0.0 | 4.0 | 0.00 | 0.11 | 0.11 | 95 | 1016.3 |
| 20260904212042 | 60 | 0 | 0.0 | 0.0 | 0.00 | 0.11 | 0.11 | 95 | 1016.4 |
| 20260904211602 | 60 | 0 | 0.0 | 6.0 | 0.00 | 0.11 | 0.11 | 95 | 1016.3 |
| 20260904211046 | 60 | 0 | 0.0 | 6.0 | 0.00 | 0.11 | 0.11 | 95 | 1016.2 |
| 20260904210550 | 60 | 0 | 0.0 | 6.0 | 0.00 | 0.11 | 0.11 | 95 | 1016.1 |
| 20260904210108 | 60 | 0 | 0.0 | 9.0 | 0.00 | 0.11 | 0.11 | 95 | 1016.1 |
| 20260904205549 | 60 | 0 | 1.0 | 9.0 | 0.00 | 0.11 | 0.11 | 95 | 1016.0 |
| 20260904205045 | 60 | 0 | 1.0 | 9.0 | 0.00 | 0.11 | 0.11 | 95 | 1016.1 |
| 20260904204609 | 60 | 0 | 0.0 | 9.0 | 0.00 | 0.11 | 0.11 | 95 | 1016.1 |
| 20260904204048 | 60 | 0 | 0.0 | 9.0 | 0.00 | 0.11 | 0.11 | 95 | 1016.0 |
| 20260904203546 | 60 | 0 | 0.0 | 9.0 | 0.00 | 0.11 | 0.11 | 95 | 1015.9 |
| 20260904203104 | 60 | 0 | 0.0 | 11.0 | 0.00 | 0.11 | 0.11 | 95 | 1015.8 |
| 20260904202545 | 61 | 0 | 1.0 | 11.0 | 0.00 | 0.11 | 0.11 | 95 | 1015.8 |
| 20260904202046 | 61 | 241 | 0.0 | 7.0 | 0.00 | 0.11 | 0.11 | 95 | 1015.9 |
| 20260904201601 | 61 | 0 | 0.0 | 8.0 | 0.00 | 0.11 | 0.11 | 95 | 1016.0 |
| 20260904201046 | 61 | 0 | 0.0 | 9.0 | 0.00 | 0.11 | 0.11 | 95 | 1016.0 |
| 20260904200547 | 60 | 0 | 0.0 | 9.0 | 0.00 | 0.11 | 0.11 | 95 | 1015.8 |
| 20260904200120 | 61 | 0 | 0.0 | 10.0 | 0.00 | 0.11 | 0.11 | 95 | 1015.9 |
| 20260904195549 | 61 | 0 | 0.0 | 10.0 | 0.00 | 0.11 | 0.11 | 95 | 1015.8 |
| 20260904195045 | 61 | 0 | 2.0 | 9.0 | 0.00 | 0.11 | 0.11 | 95 | 1015.9 |
| 20260904194609 | 61 | 0 | 0.0 | 7.0 | 0.00 | 0.11 | 0.11 | 95 | 1015.7 |
| 20260904194046 | 61 | 0 | 0.0 | 7.0 | 0.00 | 0.11 | 0.11 | 95 | 1015.6 |
| 20260904193545 | 61 | 0 | 0.0 | 7.0 | 0.00 | 0.11 | 0.11 | 96 | 1015.6 |
| 20260904193106 | 61 | 0 | 0.0 | 5.0 | 0.00 | 0.11 | 0.11 | 95 | 1015.7 |
| 20260904192546 | 61 | 0 | 0.0 | 4.0 | 0.00 | 0.11 | 0.11 | 96 | 1015.5 |
| 20260904192048 | 61 | 0 | 0.0 | 7.0 | 0.00 | 0.11 | 0.11 | 95 | 1015.4 |
| 20260904191605 | 61 | 0 | 0.0 | 7.0 | 0.00 | 0.11 | 0.11 | 95 | 1015.1 |
| 20260904191046 | 61 | 0 | 1.0 | 10.0 | 0.00 | 0.11 | 0.11 | 95 | 1015.1 |
| 20260904190546 | 61 | 0 | 0.0 | 10.0 | 0.00 | 0.11 | 0.11 | 95 | 1015.1 |
| 20260904190106 | 61 | 0 | 1.0 | 8.0 | 0.00 | 0.11 | 0.11 | 95 | 1015.1 |
| 20260904185546 | 61 | 211 | 0.0 | 8.0 | 0.00 | 0.11 | 0.11 | 95 | 1015.0 |
| 20260904185046 | 61 | 0 | 0.0 | 10.0 | 0.00 | 0.11 | 0.11 | 95 | 1015.0 |
| 20260904184614 | 61 | 234 | 1.0 | 10.0 | 0.00 | 0.11 | 0.11 | 95 | 1014.7 |
| 20260904184045 | 61 | 223 | 1.0 | 9.0 | 0.00 | 0.11 | 0.11 | 96 | 1014.6 |
| 20260904183549 | 61 | 239 | 1.0 | 9.0 | 0.00 | 0.11 | 0.11 | 95 | 1014.5 |
| 20260904183056 | 61 | 0 | 0.0 | 9.0 | 0.00 | 0.11 | 0.11 | 95 | 1014.4 |
| 20260904182545 | 61 | 239 | 0.0 | 9.0 | 0.00 | 0.11 | 0.11 | 95 | 1014.2 |
| 20260904182046 | 61 | 0 | 2.0 | 8.0 | 0.00 | 0.11 | 0.11 | 95 | 1014.2 |
| 20260904181613 | 62 | 0 | 0.0 | 9.0 | 0.00 | 0.11 | 0.11 | 95 | 1014.0 |
| 20260904181045 | 61 | 0 | 0.0 | 9.0 | 0.00 | 0.11 | 0.11 | 95 | 1014.0 |
| 20260904180547 | 62 | 236 | 0.0 | 8.0 | 0.00 | 0.11 | 0.11 | 95 | 1013.9 |
| 20260904180100 | 62 | 0 | 0.0 | 11.0 | 0.00 | 0.11 | 0.11 | 95 | 1013.7 |
| 20260904175545 | 62 | 0 | 2.0 | 11.0 | 0.00 | 0.11 | 0.11 | 95 | 1013.8 |
| 20260904175045 | 62 | 0 | 2.0 | 11.0 | 0.00 | 0.11 | 0.11 | 95 | 1013.8 |
| 20260904174604 | 62 | 238 | 0.0 | 10.0 | 0.00 | 0.11 | 0.11 | 95 | 1013.8 |
| 20260904174046 | 62 | 0 | 1.0 | 10.0 | 0.00 | 0.11 | 0.11 | 95 | 1013.7 |
| 20260904173545 | 62 | 0 | 2.0 | 9.0 | 0.00 | 0.11 | 0.11 | 95 | 1013.6 |
| 20260904173101 | 62 | 0 | 1.0 | 10.0 | 0.00 | 0.11 | 0.11 | 95 | 1013.5 |
| 20260904172547 | 62 | 0 | 0.0 | 10.0 | 0.01 | 0.11 | 0.11 | 95 | 1013.5 |
| 20260904172048 | 62 | 243 | 1.0 | 9.0 | 0.04 | 0.11 | 0.11 | 95 | 1013.6 |
| 20260904171619 | 62 | 239 | 0.0 | 10.0 | 0.05 | 0.11 | 0.11 | 95 | 1013.7 |
| 20260904171046 | 62 | 0 | 0.0 | 10.0 | 0.05 | 0.11 | 0.11 | 95 | 1013.6 |
| 20260904170545 | 61 | 0 | 0.0 | 10.0 | 0.05 | 0.11 | 0.11 | 95 | 1013.6 |
| 20260904170100 | 61 | 250 | 1.0 | 10.0 | 0.05 | 0.11 | 0.11 | 95 | 1013.5 |
| 20260904165547 | 61 | 214 | 3.0 | 10.0 | 0.05 | 0.11 | 0.11 | 95 | 1013.6 |
| 20260904165046 | 62 | 0 | 0.0 | 15.0 | 0.05 | 0.11 | 0.11 | 95 | 1013.5 |
| 20260904164618 | 62 | 0 | 2.0 | 15.0 | 0.05 | 0.11 | 0.11 | 95 | 1013.5 |
| 20260904164046 | 62 | 0 | 0.0 | 11.0 | 0.05 | 0.11 | 0.11 | 95 | 1013.4 |
| 20260904163546 | 62 | 237 | 2.0 | 11.0 | 0.06 | 0.11 | 0.11 | 95 | 1013.2 |
| 20260904163101 | 62 | 246 | 0.0 | 13.0 | 0.05 | 0.11 | 0.11 | 95 | 1013.4 |
| 20260904162547 | 62 | 266 | 2.0 | 13.0 | 0.05 | 0.10 | 0.10 | 94 | 1013.6 |
| 20260904162045 | 62 | 217 | 0.0 | 14.0 | 0.02 | 0.07 | 0.07 | 94 | 1013.4 |
| 20260904161610 | 62 | 252 | 1.0 | 14.0 | 0.01 | 0.06 | 0.06 | 94 | 1013.4 |
| 20260904161045 | 62 | 277 | 1.0 | 11.0 | 0.02 | 0.06 | 0.06 | 94 | 1013.4 |
| 20260904160546 | 62 | 0 | 0.0 | 13.0 | 0.03 | 0.06 | 0.06 | 94 | 1013.3 |
| 20260904160108 | 62 | 217 | 1.0 | 18.0 | 0.06 | 0.06 | 0.06 | 94 | 1013.3 |
| 20260904155544 | 63 | 272 | 3.0 | 18.0 | 0.06 | 0.06 | 0.06 | 94 | 1013.3 |
| 20260904155045 | 63 | 0 | 2.0 | 14.0 | 0.06 | 0.06 | 0.06 | 94 | 1013.3 |
| 20260904154604 | 63 | 217 | 2.0 | 14.0 | 0.06 | 0.06 | 0.06 | 94 | 1013.2 |
| 20260904154046 | 63 | 309 | 1.0 | 16.0 | 0.06 | 0.06 | 0.06 | 94 | 1013.4 |
| 20260904153545 | 63 | 252 | 4.0 | 19.0 | 0.05 | 0.05 | 0.05 | 93 | 1013.4 |
| 20260904153112 | 63 | 238 | 2.0 | 19.0 | 0.05 | 0.05 | 0.05 | 92 | 1013.4 |
| 20260904152545 | 63 | 0 | 5.0 | 19.0 | 0.04 | 0.04 | 0.04 | 92 | 1013.2 |
| 20260904152043 | 64 | 253 | 2.0 | 25.0 | 0.04 | 0.04 | 0.04 | 92 | 1013.0 |
| 20260904151559 | 64 | 0 | 3.0 | 25.0 | 0.04 | 0.04 | 0.04 | 91 | 1012.7 |
| 20260904151045 | 65 | 266 | 2.0 | 22.0 | 0.03 | 0.03 | 0.03 | 89 | 1012.7 |
| 20260904150546 | 66 | 0 | 3.0 | 22.0 | 0.02 | 0.02 | 0.02 | 87 | 1012.6 |
| 20260904150100 | 69 | 340 | 4.0 | 18.0 | 0.00 | 0.00 | 0.00 | 85 | 1012.4 |
| 20260904145546 | 70 | 219 | 2.0 | 20.0 | 0.00 | 0.00 | 0.00 | 84 | 1012.1 |
| 20260904145046 | 71 | 227 | 2.0 | 28.0 | 0.00 | 0.00 | 0.00 | 82 | 1011.9 |
| 20260904144606 | 72 | 258 | 8.0 | 28.0 | 0.00 | 0.00 | 0.00 | 78 | 1011.7 |
| 20260904144045 | 73 | 255 | 5.0 | 21.0 | 0.00 | 0.00 | 0.00 | 76 | 1011.7 |
| 20260904143545 | 73 | 202 | 4.0 | 23.0 | 0.00 | 0.00 | 0.00 | 76 | 1011.3 |
| 20260904143107 | 73 | 248 | 11.0 | 23.0 | 0.00 | 0.00 | 0.00 | 75 | 1011.4 |
| 20260904142545 | 73 | 0 | 2.0 | 23.0 | 0.00 | 0.00 | 0.00 | 75 | 1011.3 |
| 20260904142046 | 73 | 0 | 5.0 | 24.0 | 0.00 | 0.00 | 0.00 | 75 | 1011.4 |
| 20260904141558 | 73 | 205 | 11.0 | 24.0 | 0.00 | 0.00 | 0.00 | 75 | 1011.4 |
| 20260904141045 | 74 | 214 | 7.0 | 23.0 | 0.00 | 0.00 | 0.00 | 75 | 1011.6 |
| 20260904140543 | 73 | 223 | 7.0 | 26.0 | 0.00 | 0.00 | 0.00 | 76 | 1011.4 |
| 20260904140105 | 73 | 0 | 8.0 | 28.0 | 0.00 | 0.00 | 0.00 | 76 | 1011.4 |
| 20260904135546 | 73 | 221 | 10.0 | 35.0 | 0.00 | 0.00 | 0.00 | 75 | 1011.7 |
| 20260904135045 | 74 | 248 | 12.0 | 35.0 | 0.00 | 0.00 | 0.00 | 74 | 1011.6 |
| 20260904134606 | 75 | 248 | 11.0 | 30.0 | 0.00 | 0.00 | 0.00 | 73 | 1011.4 |
| 20260904134050 | 75 | 247 | 9.0 | 26.0 | 0.00 | 0.00 | 0.00 | 72 | 1011.4 |
| 20260904133544 | 75 | 238 | 8.0 | 26.0 | 0.00 | 0.00 | 0.00 | 73 | 1011.3 |
| 20260904133116 | 75 | 245 | 11.0 | 25.0 | 0.00 | 0.00 | 0.00 | 72 | 1011.4 |
| 20260904132546 | 75 | 251 | 5.0 | 21.0 | 0.00 | 0.00 | 0.00 | 72 | 1011.5 |
| 20260904132045 | 74 | 219 | 5.0 | 22.0 | 0.00 | 0.00 | 0.00 | 74 | 1011.4 |
| 20260904131607 | 73 | 212 | 2.0 | 22.0 | 0.00 | 0.00 | 0.00 | 73 | 1011.4 |
| 20260904131043 | 73 | 0 | 5.0 | 31.0 | 0.00 | 0.00 | 0.00 | 73 | 1011.3 |
| 20260904130544 | 74 | 245 | 11.0 | 31.0 | 0.00 | 0.00 | 0.00 | 72 | 1011.4 |
| 20260904130108 | 75 | 243 | 8.0 | 23.0 | 0.00 | 0.00 | 0.00 | 70 | 1011.4 |
| 20260904125545 | 74 | 250 | 3.0 | 22.0 | 0.00 | 0.00 | 0.00 | 71 | 1011.3 |
| 20260904125045 | 74 | 225 | 8.0 | 33.0 | 0.00 | 0.00 | 0.00 | 71 | 1011.3 |
| 20260904124605 | 75 | 287 | 13.0 | 33.0 | 0.00 | 0.00 | 0.00 | 69 | 1011.3 |
| 20260904124045 | 75 | 220 | 9.0 | 23.0 | 0.00 | 0.00 | 0.00 | 68 | 1011.2 |
| 20260904123546 | 76 | 246 | 3.0 | 25.0 | 0.00 | 0.00 | 0.00 | 68 | 1011.4 |
| 20260904123059 | 76 | 244 | 6.0 | 25.0 | 0.00 | 0.00 | 0.00 | 67 | 1011.2 |
| 20260904122546 | 76 | 286 | 7.0 | 22.0 | 0.00 | 0.00 | 0.00 | 69 | 1011.4 |
| 20260904122046 | 75 | 0 | 3.0 | 22.0 | 0.00 | 0.00 | 0.00 | 70 | 1011.4 |
| 20260904121605 | 75 | 0 | 8.0 | 24.0 | 0.00 | 0.00 | 0.00 | 68 | 1011.4 |
| 20260904121045 | 75 | 238 | 12.0 | 25.0 | 0.00 | 0.00 | 0.00 | 69 | 1011.4 |
| 20260904120546 | 75 | 248 | 9.0 | 25.0 | 0.00 | 0.00 | 0.00 | 71 | 1011.5 |
| 20260904120104 | 75 | 225 | 11.0 | 29.0 | 0.00 | 0.00 | 0.00 | 70 | 1011.6 |
| 20260904115546 | 75 | 0 | 12.0 | 29.0 | 0.00 | 0.00 | 0.00 | 71 | 1011.5 |
| 20260904115046 | 75 | 220 | 8.0 | 24.0 | 0.00 | 0.00 | 0.00 | 71 | 1011.6 |
| 20260904114608 | 74 | 286 | 5.0 | 27.0 | 0.00 | 0.00 | 0.00 | 72 | 1011.8 |
| 20260904114044 | 73 | 236 | 8.0 | 27.0 | 0.00 | 0.00 | 0.00 | 73 | 1011.7 |
| 20260904113546 | 73 | 243 | 10.0 | 27.0 | 0.00 | 0.00 | 0.00 | 73 | 1011.8 |
| 20260904113106 | 73 | 214 | 7.0 | 23.0 | 0.00 | 0.00 | 0.00 | 74 | 1011.9 |
| 20260904112546 | 73 | 250 | 4.0 | 23.0 | 0.00 | 0.00 | 0.00 | 74 | 1011.9 |
| 20260904112043 | 73 | 249 | 6.0 | 26.0 | 0.00 | 0.00 | 0.00 | 74 | 1011.8 |
| 20260904111604 | 73 | 0 | 11.0 | 26.0 | 0.00 | 0.00 | 0.00 | 73 | 1012.0 |
| 20260904111045 | 73 | 246 | 8.0 | 26.0 | 0.00 | 0.00 | 0.00 | 73 | 1012.0 |
| 20260904110545 | 73 | 218 | 11.0 | 26.0 | 0.00 | 0.00 | 0.00 | 73 | 1012.0 |
| 20260904110108 | 73 | 242 | 4.0 | 24.0 | 0.00 | 0.00 | 0.00 | 74 | 1012.2 |
| 20260904105547 | 73 | 250 | 8.0 | 24.0 | 0.00 | 0.00 | 0.00 | 74 | 1012.0 |
| 20260904105044 | 73 | 249 | 8.0 | 24.0 | 0.00 | 0.00 | 0.00 | 74 | 1012.1 |
| 20260904104617 | 73 | 231 | 4.0 | 19.0 | 0.00 | 0.00 | 0.00 | 74 | 1012.1 |
| 20260904104043 | 73 | 248 | 7.0 | 19.0 | 0.00 | 0.00 | 0.00 | 74 | 1012.1 |
| 20260904103543 | 73 | 228 | 5.0 | 23.0 | 0.00 | 0.00 | 0.00 | 75 | 1012.1 |
| 20260904103103 | 73 | 231 | 7.0 | 24.0 | 0.00 | 0.00 | 0.00 | 75 | 1012.1 |
| 20260904102548 | 73 | 216 | 8.0 | 25.0 | 0.00 | 0.00 | 0.00 | 74 | 1012.0 |
| 20260904102046 | 73 | 185 | 12.0 | 25.0 | 0.00 | 0.00 | 0.00 | 74 | 1012.0 |
| 20260904101605 | 73 | 217 | 7.0 | 31.0 | 0.00 | 0.00 | 0.00 | 74 | 1011.9 |
| 20260904101045 | 73 | 223 | 10.0 | 31.0 | 0.00 | 0.00 | 0.00 | 75 | 1011.9 |
| 20260904100545 | 73 | 205 | 9.0 | 21.0 | 0.00 | 0.00 | 0.00 | 75 | 1011.9 |
| 20260904100119 | 73 | 261 | 2.0 | 32.0 | 0.00 | 0.00 | 0.00 | 76 | 1011.9 |
| 20260904095545 | 73 | 212 | 6.0 | 32.0 | 0.00 | 0.05 | 0.00 | 75 | 1012.0 |
| 20260904095046 | 73 | 227 | 10.0 | 32.0 | 0.00 | 0.05 | 0.00 | 75 | 1012.2 |
| 20260904094617 | 73 | 178 | 15.0 | 29.0 | 0.00 | 0.05 | 0.00 | 74 | 1012.0 |
| 20260904094044 | 74 | 199 | 8.0 | 28.0 | 0.00 | 0.05 | 0.00 | 74 | 1012.1 |
| 20260904093544 | 74 | 211 | 8.0 | 28.0 | 0.00 | 0.05 | 0.00 | 74 | 1012.1 |
| 20260904093107 | 74 | 232 | 12.0 | 28.0 | 0.00 | 0.05 | 0.00 | 75 | 1012.0 |
| 20260904092543 | 73 | 200 | 14.0 | 25.0 | 0.00 | 0.05 | 0.00 | 76 | 1012.0 |
| 20260904092045 | 73 | 0 | 7.0 | 21.0 | 0.00 | 0.05 | 0.00 | 77 | 1012.2 |
| 20260904091604 | 73 | 188 | 6.0 | 25.0 | 0.00 | 0.05 | 0.00 | 76 | 1012.2 |
| 20260904091044 | 73 | 227 | 7.0 | 25.0 | 0.00 | 0.05 | 0.00 | 77 | 1012.2 |
| 20260904090545 | 72 | 223 | 8.0 | 24.0 | 0.00 | 0.05 | 0.00 | 78 | 1012.4 |
| 20260904090104 | 72 | 246 | 5.0 | 22.0 | 0.00 | 0.05 | 0.00 | 78 | 1012.5 |
| 20260904085544 | 72 | 0 | 7.0 | 24.0 | 0.00 | 0.18 | 0.00 | 79 | 1012.5 |
| 20260904085045 | 72 | 227 | 5.0 | 24.0 | 0.00 | 0.18 | 0.00 | 79 | 1012.7 |
| 20260904084604 | 71 | 232 | 7.0 | 23.0 | 0.00 | 0.18 | 0.00 | 80 | 1012.8 |
| 20260904084045 | 71 | 238 | 2.0 | 17.0 | 0.00 | 0.18 | 0.00 | 81 | 1012.7 |
| 20260904083543 | 71 | 244 | 5.0 | 16.0 | 0.00 | 0.18 | 0.00 | 81 | 1012.8 |
| 20260904083106 | 71 | 223 | 4.0 | 18.0 | 0.00 | 0.18 | 0.00 | 81 | 1012.8 |
| 20260904082545 | 71 | 207 | 4.0 | 18.0 | 0.00 | 0.18 | 0.00 | 81 | 1012.8 |
| 20260904082048 | 71 | 201 | 7.0 | 20.0 | 0.00 | 0.18 | 0.00 | 80 | 1012.9 |
| 20260904081604 | 71 | 258 | 8.0 | 20.0 | 0.00 | 0.18 | 0.00 | 80 | 1013.0 |
| 20260904081044 | 71 | 227 | 6.0 | 20.0 | 0.00 | 0.18 | 0.00 | 80 | 1013.0 |
| 20260904080545 | 71 | 240 | 4.0 | 20.0 | 0.00 | 0.18 | 0.00 | 80 | 1013.0 |
| 20260904080135 | 71 | 246 | 6.0 | 20.0 | 0.00 | 0.18 | 0.00 | 80 | 1012.9 |
| 20260904075544 | 71 | 250 | 5.0 | 19.0 | 0.00 | 0.18 | 0.00 | 80 | 1012.8 |
| 20260904075046 | 71 | 0 | 2.0 | 19.0 | 0.00 | 0.18 | 0.00 | 80 | 1012.9 |
| 20260904074610 | 71 | 241 | 9.0 | 23.0 | 0.00 | 0.18 | 0.00 | 80 | 1012.9 |
| 20260904074044 | 71 | 247 | 5.0 | 23.0 | 0.00 | 0.18 | 0.00 | 80 | 1012.9 |
| 20260904073544 | 71 | 209 | 7.0 | 23.0 | 0.00 | 0.18 | 0.00 | 80 | 1013.0 |
| 20260904073105 | 71 | 250 | 9.0 | 22.0 | 0.00 | 0.18 | 0.00 | 81 | 1013.0 |
| 20260904072545 | 70 | 219 | 10.0 | 22.0 | 0.00 | 0.18 | 0.00 | 82 | 1013.2 |
| 20260904072045 | 70 | 240 | 6.0 | 22.0 | 0.00 | 0.18 | 0.00 | 81 | 1013.3 |
| 20260904071606 | 70 | 231 | 9.0 | 22.0 | 0.00 | 0.18 | 0.00 | 82 | 1013.3 |
| 20260904071045 | 70 | 246 | 9.0 | 21.0 | 0.00 | 0.18 | 0.00 | 82 | 1013.3 |
| 20260904070545 | 70 | 256 | 10.0 | 27.0 | 0.00 | 0.18 | 0.00 | 82 | 1013.5 |
| 20260904070101 | 69 | 0 | 8.0 | 27.0 | 0.00 | 0.18 | 0.00 | 83 | 1013.5 |
| 20260904065543 | 69 | 232 | 5.0 | 21.0 | 0.00 | 0.18 | 0.00 | 83 | 1013.6 |
| 20260904065045 | 69 | 224 | 7.0 | 21.0 | 0.00 | 0.18 | 0.00 | 83 | 1013.5 |
| 20260904064605 | 69 | 238 | 4.0 | 19.0 | 0.00 | 0.18 | 0.00 | 83 | 1013.6 |
| 20260904064046 | 69 | 235 | 6.0 | 17.0 | 0.00 | 0.18 | 0.00 | 84 | 1013.6 |
| 20260904063544 | 69 | 248 | 5.0 | 19.0 | 0.00 | 0.18 | 0.00 | 84 | 1013.4 |
| 20260904063105 | 69 | 224 | 4.0 | 19.0 | 0.00 | 0.18 | 0.00 | 85 | 1013.5 |
| 20260904062545 | 68 | 227 | 6.0 | 17.0 | 0.00 | 0.18 | 0.00 | 85 | 1013.6 |
| 20260904062043 | 68 | 0 | 6.0 | 17.0 | 0.00 | 0.18 | 0.00 | 85 | 1013.6 |
| 20260904061603 | 68 | 225 | 6.0 | 17.0 | 0.00 | 0.18 | 0.00 | 86 | 1013.8 |
| 20260904061045 | 68 | 194 | 5.0 | 17.0 | 0.00 | 0.18 | 0.00 | 85 | 1013.8 |
| 20260904060545 | 68 | 245 | 6.0 | 17.0 | 0.00 | 0.18 | 0.00 | 85 | 1013.9 |
| 20260904060121 | 68 | 251 | 5.0 | 15.0 | 0.00 | 0.18 | 0.00 | 86 | 1013.9 |
| 20260904055543 | 68 | 232 | 2.0 | 16.0 | 0.00 | 0.18 | 0.00 | 86 | 1013.9 |
| 20260904055044 | 68 | 195 | 5.0 | 16.0 | 0.00 | 0.18 | 0.00 | 86 | 1014.0 |
| 20260904054601 | 68 | 221 | 4.0 | 17.0 | 0.00 | 0.18 | 0.00 | 86 | 1014.1 |
| 20260904054044 | 68 | 0 | 3.0 | 18.0 | 0.00 | 0.18 | 0.00 | 86 | 1014.2 |
| 20260904053542 | 68 | 0 | 3.0 | 18.0 | 0.00 | 0.18 | 0.00 | 86 | 1014.2 |
| 20260904053145 | 68 | 242 | 5.0 | 17.0 | 0.00 | 0.18 | 0.00 | 86 | 1014.2 |
| 20260904052546 | 68 | 243 | 3.0 | 18.0 | 0.00 | 0.18 | 0.00 | 86 | 1014.3 |
| 20260904052046 | 68 | 0 | 1.0 | 18.0 | 0.00 | 0.18 | 0.00 | 86 | 1014.3 |
| 20260904051614 | 68 | 0 | 3.0 | 18.0 | 0.00 | 0.18 | 0.00 | 87 | 1014.5 |
| 20260904051045 | 68 | 207 | 4.0 | 18.0 | 0.00 | 0.18 | 0.00 | 86 | 1014.3 |
| 20260904050544 | 68 | 0 | 6.0 | 18.0 | 0.00 | 0.18 | 0.00 | 86 | 1014.3 |
| 20260904050058 | 68 | 263 | 3.0 | 23.0 | 0.00 | 0.18 | 0.00 | 86 | 1014.4 |
| 20260904045542 | 68 | 283 | 6.0 | 23.0 | 0.00 | 0.18 | 0.00 | 86 | 1014.5 |
| 20260904045042 | 68 | 220 | 5.0 | 18.0 | 0.00 | 0.18 | 0.00 | 87 | 1014.5 |
| 20260904044611 | 68 | 239 | 4.0 | 17.0 | 0.00 | 0.18 | 0.00 | 87 | 1014.5 |
| 20260904044046 | 68 | 0 | 5.0 | 17.0 | 0.00 | 0.18 | 0.00 | 87 | 1014.4 |
| 20260904043545 | 68 | 258 | 2.0 | 15.0 | 0.00 | 0.18 | 0.00 | 87 | 1014.4 |
| 20260904043114 | 68 | 0 | 4.0 | 15.0 | 0.00 | 0.18 | 0.00 | 87 | 1014.3 |
| 20260904042545 | 68 | 215 | 4.0 | 19.0 | 0.00 | 0.18 | 0.00 | 87 | 1014.5 |
| 20260904042045 | 68 | 0 | 5.0 | 19.0 | 0.00 | 0.18 | 0.00 | 87 | 1014.6 |
| 20260904041605 | 68 | 238 | 2.0 | 17.0 | 0.00 | 0.18 | 0.00 | 87 | 1014.6 |
| 20260904041045 | 68 | 242 | 3.0 | 17.0 | 0.00 | 0.18 | 0.00 | 87 | 1014.8 |
| 20260904040542 | 68 | 230 | 7.0 | 18.0 | 0.00 | 0.18 | 0.00 | 87 | 1014.7 |
| 20260904040105 | 68 | 243 | 4.0 | 18.0 | 0.00 | 0.18 | 0.00 | 87 | 1014.8 |
| 20260904035545 | 68 | 252 | 5.0 | 18.0 | 0.00 | 0.18 | 0.00 | 87 | 1014.9 |
| 20260904035043 | 68 | 207 | 2.0 | 14.0 | 0.00 | 0.18 | 0.00 | 87 | 1015.0 |
| 20260904034603 | 68 | 0 | 3.0 | 14.0 | 0.00 | 0.18 | 0.00 | 87 | 1015.2 |
| 20260904034045 | 68 | 0 | 1.0 | 16.0 | 0.00 | 0.18 | 0.00 | 87 | 1015.1 |
| 20260904033546 | 68 | 225 | 2.0 | 16.0 | 0.00 | 0.18 | 0.00 | 87 | 1015.1 |
| 20260904033107 | 68 | 0 | 5.0 | 19.0 | 0.00 | 0.18 | 0.00 | 87 | 1015.1 |
| 20260904032545 | 68 | 200 | 4.0 | 19.0 | 0.00 | 0.18 | 0.00 | 87 | 1015.2 |
| 20260904032044 | 68 | 223 | 3.0 | 17.0 | 0.00 | 0.18 | 0.00 | 87 | 1015.3 |
| 20260904031556 | 68 | 0 | 1.0 | 14.0 | 0.00 | 0.18 | 0.00 | 87 | 1015.3 |
| 20260904031044 | 68 | 230 | 3.0 | 14.0 | 0.00 | 0.18 | 0.00 | 87 | 1015.5 |
| 20260904030542 | 68 | 0 | 1.0 | 20.0 | 0.00 | 0.18 | 0.00 | 87 | 1015.5 |
| 20260904030056 | 68 | 0 | 4.0 | 20.0 | 0.00 | 0.18 | 0.00 | 87 | 1015.7 |
| 20260904025546 | 68 | 258 | 3.0 | 15.0 | 0.00 | 0.18 | 0.00 | 87 | 1015.9 |
| 20260904025044 | 68 | 229 | 4.0 | 14.0 | 0.00 | 0.18 | 0.00 | 87 | 1015.7 |
| 20260904024622 | 68 | 0 | 1.0 | 16.0 | 0.00 | 0.18 | 0.00 | 87 | 1015.8 |
| 20260904024048 | 68 | 246 | 5.0 | 16.0 | 0.00 | 0.18 | 0.00 | 87 | 1015.8 |
| 20260904023545 | 68 | 247 | 4.0 | 18.0 | 0.00 | 0.18 | 0.00 | 87 | 1015.8 |
| 20260904023108 | 68 | 0 | 5.0 | 20.0 | 0.00 | 0.18 | 0.00 | 87 | 1015.9 |
| 20260904022545 | 68 | 249 | 5.0 | 20.0 | 0.00 | 0.18 | 0.00 | 87 | 1016.0 |
| 20260904022044 | 68 | 0 | 2.0 | 20.0 | 0.00 | 0.18 | 0.00 | 88 | 1016.0 |
| 20260904021603 | 68 | 236 | 0.0 | 14.0 | 0.00 | 0.18 | 0.00 | 88 | 1016.0 |
| 20260904021045 | 68 | 254 | 2.0 | 14.0 | 0.00 | 0.18 | 0.00 | 88 | 1016.1 |
| 20260904020544 | 68 | 249 | 1.0 | 12.0 | 0.00 | 0.18 | 0.00 | 88 | 1016.2 |
| 20260904020104 | 68 | 0 | 2.0 | 22.0 | 0.00 | 0.18 | 0.00 | 88 | 1016.2 |
| 20260904015545 | 68 | 224 | 5.0 | 22.0 | 0.00 | 0.18 | 0.00 | 88 | 1016.3 |
| 20260904015045 | 68 | 0 | 4.0 | 14.0 | 0.00 | 0.18 | 0.00 | 88 | 1016.4 |
| 20260904014612 | 68 | 0 | 2.0 | 14.0 | 0.00 | 0.18 | 0.00 | 88 | 1016.3 |
| 20260904014045 | 68 | 225 | 3.0 | 14.0 | 0.00 | 0.18 | 0.00 | 88 | 1016.3 |
| 20260904013547 | 68 | 231 | 1.0 | 22.0 | 0.00 | 0.18 | 0.00 | 88 | 1016.3 |
| 20260904013106 | 68 | 228 | 2.0 | 22.0 | 0.00 | 0.18 | 0.00 | 88 | 1016.3 |